GW0425 Weather Reports


Display with metric or nautical units.
time (UTC)temp
F
wind
direction
speed
MPH
gust
MPH
rain 1hr
in
rain 24hr
in
rain mn
in
humidity
%
barometer
mb
20260510031540 59 86 0.0 2.0 0.00 0.00 0.00 88 1008.0
20260510030050 59 96 0.0 3.0 0.00 0.00 0.00 87 1008.1
20260510024539 59 0 2.0 4.0 0.00 0.00 0.00 86 1008.3
20260510023036 59 152 2.0 4.0 0.00 0.00 0.00 85 1008.3
20260510021536 60 143 0.0 2.0 0.00 0.00 0.00 83 1008.5
20260510020039 60 147 0.0 2.0 0.00 0.00 0.00 83 1008.7
20260510014540 60 127 0.0 1.0 0.00 0.00 0.00 81 1008.7
20260510013039 61 105 0.0 4.0 0.00 0.00 0.00 80 1008.7
20260510011545 61 118 1.0 7.0 0.00 0.00 0.00 80 1008.7
20260510010038 61 138 3.0 8.0 0.00 0.00 0.00 79 1008.7
20260510004536 61 129 3.0 8.0 0.00 0.00 0.00 79 1008.9
20260510003043 61 104 2.0 8.0 0.00 0.00 0.00 80 1009.1
20260510001539 61 108 4.0 12.0 0.00 0.00 0.00 80 1009.3
20260510000043 61 94 5.0 13.0 0.00 0.00 0.00 79 1009.3
20260509234542 61 148 4.0 8.0 0.00 0.00 0.00 79 1009.5
20260509233037 61 149 4.0 11.0 0.00 0.00 0.00 81 1009.4
20260509231541 61 148 2.0 10.0 0.00 0.00 0.00 82 1009.4
20260509230043 62 81 4.0 15.0 0.00 0.00 0.00 80 1009.6
20260509224542 61 123 4.0 11.0 0.00 0.00 0.00 80 1009.4
20260509223039 62 137 2.0 11.0 0.00 0.00 0.00 79 1009.6
20260509221539 64 113 6.0 13.0 0.00 0.00 0.00 75 1009.7
20260509220040 65 139 6.0 17.0 0.00 0.00 0.00 74 1010.1
20260509214537 65 148 10.0 21.0 0.00 0.00 0.00 81 1010.1
20260509213048 65 0 0.0 1.0 0.00 0.00 0.00 85 1009.5
20260509211539 65 0 0.0 0.0 0.00 0.00 0.00 85 1009.3
20260509210049 66 0 0.0 1.0 0.00 0.00 0.00 85 1009.3
20260509204541 66 0 0.0 2.0 0.00 0.00 0.00 85 1009.5
20260509203040 66 0 0.0 1.0 0.00 0.00 0.00 85 1009.4
20260509201539 66 8 0.0 2.0 0.00 0.00 0.00 86 1009.6
20260509200040 66 0 0.0 3.0 0.00 0.00 0.00 88 1009.3
20260509194539 66 321 2.0 6.0 0.00 0.00 0.00 89 1009.3
20260509193042 66 320 4.0 7.0 0.00 0.00 0.00 90 1009.3
20260509191540 66 292 0.0 4.0 0.00 0.00 0.00 90 1009.3
20260509190043 67 321 1.0 3.0 0.00 0.00 0.00 89 1009.3
20260509184551 67 290 1.0 5.0 0.00 0.00 0.00 87 1009.2
20260509183039 68 307 1.0 3.0 0.00 0.00 0.00 82 1009.1
20260509181550 70 319 1.0 7.0 0.00 0.00 0.00 78 1009.0
20260509180043 73 0 0.0 1.0 0.00 0.00 0.00 62 1008.9
20260509174537 74 110 0.0 3.0 0.00 0.00 0.00 61 1008.7
20260509173042 74 105 0.0 2.0 0.00 0.00 0.00 59 1008.7
20260509171540 74 84 1.0 4.0 0.00 0.00 0.00 57 1008.7
20260509170046 75 104 1.0 4.0 0.00 0.00 0.00 57 1008.8
20260509164542 75 68 2.0 5.0 0.00 0.00 0.00 56 1008.6
20260509163040 75 0 1.0 6.0 0.00 0.00 0.00 57 1008.8
20260509161540 75 135 2.0 6.0 0.00 0.00 0.00 55 1009.0
20260509160039 76 155 2.0 7.0 0.00 0.00 0.00 54 1008.9
20260509154543 76 60 0.0 6.0 0.00 0.00 0.00 52 1008.8
20260509153042 76 120 2.0 8.0 0.00 0.00 0.00 54 1009.1
20260509151548 76 153 1.0 8.0 0.00 0.00 0.00 54 1009.2
20260509150046 76 122 3.0 8.0 0.00 0.00 0.00 56 1009.4
20260509144540 76 131 3.0 8.0 0.00 0.00 0.00 55 1009.6
20260509143039 75 82 2.0 6.0 0.00 0.00 0.00 54 1009.7
20260509141537 75 148 1.0 8.0 0.00 0.00 0.00 55 1009.7
20260509140048 75 131 4.0 8.0 0.00 0.00 0.00 57 1009.8
20260509134540 75 104 4.0 9.0 0.00 0.00 0.00 56 1010.0
20260509133038 75 104 4.0 13.0 0.00 0.00 0.00 56 1010.0
20260509131540 75 74 2.0 12.0 0.00 0.00 0.00 56 1010.0
20260509130038 75 109 4.0 9.0 0.00 0.00 0.00 58 1010.2
20260509124536 74 95 6.0 11.0 0.00 0.00 0.00 58 1010.3
20260509123036 74 103 5.0 12.0 0.00 0.00 0.00 60 1010.3
20260509121541 74 76 4.0 12.0 0.00 0.00 0.00 59 1010.3
20260509120043 74 150 5.0 12.0 0.00 0.00 0.00 60 1010.3
20260509114538 73 71 6.0 15.0 0.00 0.00 0.00 60 1010.2
20260509113036 73 101 6.0 10.0 0.00 0.00 0.00 61 1010.3
20260509111536 72 109 5.0 12.0 0.00 0.00 0.00 62 1010.6
20260509110043 72 127 6.0 11.0 0.00 0.00 0.00 62 1010.9
20260509104539 72 120 6.0 14.0 0.00 0.00 0.00 62 1011.0
20260509103039 72 120 4.0 13.0 0.00 0.00 0.00 66 1011.2
20260509101547 71 157 6.0 13.0 0.00 0.00 0.00 66 1011.1
20260509100043 71 122 4.0 11.0 0.00 0.00 0.00 68 1011.2
20260509094536 70 112 3.0 11.0 0.00 0.00 0.00 69 1011.2
20260509093036 70 91 5.0 10.0 0.00 0.00 0.00 70 1011.2
20260509091538 69 79 7.0 12.0 0.00 0.00 0.00 72 1011.2
20260509090042 68 134 6.0 11.0 0.00 0.00 0.00 73 1011.1
20260509084544 68 121 6.0 12.0 0.00 0.00 0.00 74 1010.9
20260509083041 67 177 6.0 13.0 0.00 0.00 0.00 75 1011.0
20260509081539 66 134 5.0 12.0 0.00 0.00 0.00 76 1011.0
20260509080043 65 122 4.0 10.0 0.00 0.00 0.00 78 1011.0
20260509074535 64 140 6.0 10.0 0.00 0.00 0.00 80 1011.2
20260509073112 64 117 4.0 13.0 0.00 0.00 0.00 80 1011.4
20260509071540 63 140 5.0 9.0 0.00 0.00 0.00 81 1011.5
20260509070044 62 136 2.0 8.0 0.00 0.00 0.00 85 1011.5
20260509064540 61 165 4.0 9.0 0.00 0.00 0.00 85 1011.6
20260509063037 60 115 4.0 10.0 0.00 0.00 0.00 86 1011.4
20260509061536 59 144 4.0 9.0 0.00 0.00 0.00 87 1011.3
20260509060046 59 148 2.0 7.0 0.00 0.00 0.00 86 1011.3
20260509054535 60 87 2.0 6.0 0.00 0.00 0.00 86 1011.2
20260509053039 58 131 2.0 7.0 0.00 0.00 0.00 87 1011.2
20260509051538 58 155 2.0 5.0 0.00 0.00 0.00 87 1011.2
20260509050037 58 155 1.0 6.0 0.00 0.00 0.00 86 1011.0
20260509044543 58 139 2.0 6.0 0.00 0.00 0.00 86 1011.1
20260509043048 58 151 2.0 6.0 0.00 0.00 0.00 86 1011.0
20260509041542 58 150 2.0 5.0 0.00 0.00 0.00 87 1010.9
20260509040057 58 0 0.0 1.0 0.00 0.00 0.00 87 1010.9
20260509034547 58 0 0.0 1.0 0.00 0.00 0.00 87 1010.9
20260509033045 59 123 0.0 2.0 0.00 0.00 0.00 86 1011.0